Location: Bréhémont
(47.2950°N, 0.3592°E)
Time: 22:15:19
(UTC+00:00)

Daily predictions for brighter satellites

Satellite Brightness Start Highest point End
(mag) Time Altitude Azimuth Time Altitude Azimuth Time Altitude Azimuth
CENTAUR R/B 3.7 16:34:34 10° W 16:40:04 35° NNW 16:46:51 10° NE
Cosmos 1697 Rocket 3.1 16:35:26 10° S 16:40:43 45° ESE 16:46:03 10° NE
Cosmos 2360 4.3 16:36:33 10° SSW 16:42:16 88° WNW 16:48:03 10° NNE
Cosmos 1626 Rocket 3.8 16:39:17 10° NNW 16:43:37 73° W 16:47:52 10° S
CZ-2D R/B 4.2 16:41:54 10° ESE 16:44:09 18° ENE 16:46:24 10° NNE
Cosmos 2266 Rocket 4.0 16:43:23 10° N 16:49:27 59° ENE 16:55:24 10° SSE
Cosmos 1656 4.2 16:44:33 10° SW 16:50:06 60° WNW 16:55:46 10° NNE
Cosmos 2228 4.3 16:47:07 10° SSW 16:51:09 41° WNW 16:55:12 10° N
Cosmos 1606 Rocket 4.2 16:48:03 10° SSE 16:52:06 37° E 16:56:12 10° NNE
Cosmos 1503 Rocket 4.0 16:49:02 10° SSW 16:54:15 78° ESE 16:59:28 10° NNE
Lacrosse 5 rocket 2.9 16:53:14 10° NW 16:55:58 19° N 16:58:38 10° NE
Cosmos 1484 Rocket 2.8 16:55:47 10° S 16:59:17 72° WSW 17:02:47 10° NNW
CZ-4C R/B 3.2 16:52:28 10° NW 16:59:31 82° SW 17:08:15 10° SSE
UNK 4.0 16:55:15 10° NNE 16:59:42 48° E 17:04:05 10° S
Thor Agena Rocket 3.5 16:55:21 10° SSE 17:00:31 71° ENE 17:05:39 10° N
Cosmos 1544 Rocket 4.2 16:57:08 10° SSW 17:01:28 59° WNW 17:05:52 10° N
Cosmos 1743 2.9 16:58:40 10° NNW 17:01:53 60° W 17:05:03 10° S
NOSS 2-3 (D) 3.7 17:00:23 10° SSW 17:03:53 41° ESE 17:07:03 13° NE
NOSS 2-3 (E) 3.6 17:01:01 10° SSW 17:04:32 45° ESE 17:07:43 13° NE
Cosmos 1354 Rocket 4.0 17:00:04 10° S 17:05:17 68° ESE 17:10:30 10° NNE
IGS 5A 3.5 17:02:47 10° S 17:06:45 78° W 17:10:45 10° NNW
Cosmos 1777 Rocket 4.3 17:02:16 10° SSW 17:07:31 72° WNW 17:12:46 10° NNE
Cosmos-2242 4.4 17:06:09 10° SE 17:09:06 19° E 17:11:23 13° NE
USA 238 DEB 4.0 17:03:32 10° S 17:09:09 42° ESE 17:14:48 12° NE
USA 238 4.0 17:03:39 10° S 17:09:17 41° ESE 17:14:54 12° NE
Cosmos 2151 3.2 17:05:50 10° NNW 17:10:00 74° W 17:14:09 10° S
MOS 1 Rocket 3.8 17:05:28 10° SE 17:10:10 43° ENE 17:15:07 10° N
Gbstr 26 Del rocket 2.7 17:09:21 10° WSW 17:13:33 85° SSE 17:16:29 16° ENE
Cosmos 1726 Rocket 3.9 17:10:09 10° SSE 17:14:36 47° E 17:18:59 10° NNE
USA 215 4.0 17:12:07 12° ENE 17:17:38 39° N 17:23:37 10° WNW
AQUARIUS 4.3 17:13:32 10° SE 17:17:45 47° ENE 17:22:00 10° N
IRIDIUM 104 4.4 17:12:45 10° N 17:18:01 87° W 17:23:14 10° S
Cosmos 2082 4.3 17:12:56 10° NNW 17:18:07 34° NE 17:23:15 10° ESE
SMAP 3.0 17:14:23 10° SSE 17:19:01 84° ENE 17:23:43 10° NNW
Meteor 1-20 Rocket 4.4 17:14:21 10° NNW 17:19:48 73° W 17:25:14 10° S
Cosmos 1805 4.2 17:18:23 10° NNE 17:20:56 20° ENE 17:23:27 10° ESE
Cosmos 2297 Rocket 3.7 17:16:42 10° NW 17:21:58 40° WSW 17:27:12 10° S
Cosmos 1602 Rocket 4.4 17:18:51 10° NNW 17:23:07 52° W 17:27:18 10° S
Landsat 7 3.7 17:18:32 10° SSE 17:23:09 73° ENE 17:27:49 10° N
GEOS 3 Rocket 3.7 17:19:09 12° NE 17:24:06 67° SE 17:29:26 10° SSW
YAOGAN 1 3.6 17:22:42 10° ESE 17:26:05 24° ENE 17:29:30 10° NNE
SL-16 R/B 4.1 17:28:52 10° ESE 17:29:26 11° ESE 17:29:26 11° ESE
Okean 1-7 Rocket 4.0 17:26:35 10° NNW 17:30:56 64° W 17:35:14 10° S
Cosmos 990 Rocket 4.0 17:27:32 10° SSW 17:32:40 84° WNW 17:37:51 10° NNE
Cosmos 1461 4.2 17:29:35 10° WSW 17:33:06 31° NW 17:36:23 12° NNE
CZ-2D R/B 4.1 17:30:24 10° SE 17:34:06 31° ENE 17:37:45 10° N
SL-16 R/B 3.3 17:29:46 10° N 17:35:46 52° WNW 17:41:44 10° SW
COSMOS 2455 4.1 17:32:55 10° SSE 17:37:16 21° ESE 17:38:36 19° E
SKYMED 2 4.2 17:35:14 18° NE 17:37:56 35° E 17:41:54 10° SSE
Okean 1 4.0 17:35:14 10° SSE 17:38:17 26° E 17:38:21 26° E
SJ-6F 4.2 17:40:26 10° SSE 17:44:25 75° ENE 17:48:27 10° N
Cosmos 1844 Rocket 3.7 17:40:28 10° N 17:45:00 24° NE 17:45:49 23° ENE
Cosmos 1980 Rocket 2.2 17:39:25 10° SSW 17:45:01 66° ESE 17:49:21 17° NE
Cosmos 2219 3.2 17:39:46 10° NNW 17:45:28 60° ENE 17:51:08 10° SE
Aureole 1 Rocket 3.4 17:42:31 10° S 17:47:00 65° ESE 17:51:47 15° NNE
Cosmos 1953 Rocket 3.5 17:43:27 10° N 17:47:56 83° E 17:52:23 10° S
Meteor 1-26 Rocket 4.3 17:43:15 10° SSE 17:48:21 46° E 17:52:49 14° NNE
PSLV R/B 4.0 17:49:59 32° ENE 17:50:12 32° ENE 17:53:51 10° N
ARIANE 5 R/B 2.9 17:47:07 10° S 17:52:09 66° WSW 17:57:17 10° NNW
Cosmos 2263 Rocket 2.2 17:47:58 10° NNW 17:53:41 86° WSW 17:59:22 10° SSE
BREEZE-M DEB (TANK) 3.1 17:53:04 10° SW 17:56:53 35° SSE 17:57:13 33° SE
Meteor 1-5 Rocket 4.4 17:52:56 10° NNW 17:58:17 69° W 18:03:44 10° S
NOSS 3-2 (C) 4.2 17:53:56 10° WSW 17:58:52 40° NW 18:03:20 16° NNE
Cosmos 1680 Rocket 4.0 17:54:11 10° N 17:59:01 37° ENE 18:00:24 31° E
BREEZE-M DEB (TANK) 3.8 17:55:40 10° WNW 17:59:12 83° NNE 18:06:53 19° ESE
COSMO-SKYMED 1 2.9 17:59:08 37° E 17:59:15 37° E 18:03:05 10° SSE
NOAA 6 4.3 17:57:42 10° SE 18:02:27 41° ENE 18:07:12 10° N
Cosmos 1076 Rocket 3.9 17:58:16 10° NNW 18:02:33 63° W 18:06:48 10° S
Cosmos 2369 3.9 17:57:12 10° S 18:02:43 52° ESE 18:05:20 30° NE
Meteor 2-10 4.0 17:57:21 10° N 18:02:48 84° E 18:08:23 10° SSE
Cosmos 1655 Rocket 4.4 18:05:20 10° NNW 18:11:30 65° W 18:17:37 10° S
Cosmos 44 Rocket 4.1 18:07:19 10° NNW 18:11:53 33° NE 18:11:53 33° NE
USA 81 4.0 18:06:41 10° N 18:11:59 87° W 18:17:15 10° S
Cosmos 2227 Rocket 3.8 18:08:30 10° NW 18:13:36 36° WSW 18:18:42 10° S
SPOT 1/Viking Rocket 3.6 18:11:00 10° SSE 18:16:12 82° WSW 18:21:27 10° NNW
Cosmos 2058 Rocket 3.3 18:18:54 10° SSW 18:23:21 71° W 18:26:26 20° N
Cosmos 1697 Rocket 4.1 18:19:45 10° WSW 18:24:48 34° NW 18:29:16 13° N
OceanSat 1 rocket 4.4 18:21:09 10° SSE 18:25:51 69° ENE 18:30:32 10° N
Cosmos 2333 Rocket 3.9 18:27:51 10° SSE 18:29:34 18° SE 18:29:34 18° SE
CENTAUR R/B 4.3 18:27:37 10° NW 18:33:01 23° N 18:35:36 20° NNE
Lacrosse 5 rocket 3.3 18:31:05 10° NW 18:32:26 17° NNW 18:32:26 17° NNW
NOSS 2-3 (C) 4.4 18:31:29 10° WSW 18:34:38 33° NW 18:34:52 32° NNW
Meteor 2-11 Rocket 4.3 18:28:44 10° N 18:34:55 76° E 18:41:03 10° SSE
MINOTAUR IV R/B 4.4 18:30:48 10° NNW 18:35:13 89° WSW 18:35:26 81° SSE
Meteor 1-14 Rocket 4.1 18:33:22 10° N 18:39:05 61° ENE 18:39:10 61° E
Resurs 1-3 3.9 18:38:52 10° S 18:43:06 62° WSW 18:47:24 10° NNW
Cosmos 2322 Rocket 4.4 18:38:56 10° SSE 18:39:03 10° SSE 18:39:03 10° SSE
Cosmos-2242 4.0 18:41:44 10° SSW 18:45:47 43° WNW 18:47:46 26° NNW
Cosmos 1898 Rocket 4.2 18:49:54 10° SW 18:54:52 49° WNW 18:56:44 33° N
Cosmos 1844 4.3 18:50:44 10° NNW 18:54:37 42° N 18:54:37 42° N
USA 215 3.7 18:59:28 43° NNE 18:59:49 43° NNE 19:05:56 10° NW
USA 238 DEB 4.2 18:53:58 10° WSW 18:59:58 49° NW 19:02:15 36° N
Gbstr 26 Del rocket 4.5 18:56:20 10° WNW 18:58:31 28° WNW 18:58:31 28° WNW
USA 238 4.2 18:54:03 10° WSW 19:00:04 50° NW 19:02:21 36° N
Cosmos 1553 Rocket 4.3 18:54:05 10° SSW 19:00:11 63° WNW 19:06:27 10° N
S3M 4.2 18:54:24 10° S 18:59:17 53° SSE 18:59:17 53° SSE
Cosmos 2112 Rocket 4.3 18:55:36 10° NNW 18:59:47 59° NNW 18:59:47 59° NNW
YAOGAN 1 3.9 18:57:47 10° SSW 19:01:45 38° W 19:05:45 10° NNW
BREEZE-M DEB (TANK) 3.5 19:00:28 10° SW 19:06:16 56° S 19:06:16 56° S
Cosmos 1937 Rocket 4.2 19:05:19 10° SW 19:10:19 48° WNW 19:10:58 46° NW
Meteor 2-6 Rocket 4.4 19:04:57 10° SSW 19:10:37 71° WNW 19:11:37 58° NNW
Cosmos 2237 4.3 19:07:18 10° SW 19:12:59 70° WNW 19:12:59 70° WNW
SL-16 R/B 3.1 19:07:56 10° SSW 19:11:20 38° S 19:11:20 38° S
Cosmos 1745 Rocket 4.0 19:10:49 10° NNW 19:16:58 75° W 19:23:04 10° S
COSMOS 2455 3.0 19:16:29 10° SW 19:21:46 67° WSW 19:21:46 67° WSW
Cosmos 1844 Rocket 3.6 19:23:48 10° NNW 19:27:31 42° NW 19:27:31 42° NW
Cosmos 1980 Rocket 4.0 19:24:50 10° WSW 19:29:29 26° NW 19:31:06 22° NNW
